Powrót do katalogu

STARLINK-31368

AktywnyŁącznośćVLEO
NORAD 58970·PAYLOAD·🇺🇸 United States

Wystrzelony Feb 15, 2024 z Vandenberg Space Force Base

Loading…

Następne Przeloty (najbliższe 24 godziny)

TLE

ŚwieżeSource: CelesTrak SupGP

Epoka: Sep 14, 2026, 21:27 UTC

1 58970C 24031F   26257.89423611 -.00011731  00000+0 -34662-3 0  2570
2 58970  53.1570 136.0866 0001234  98.1758   0.4341 15.34393120    14

Śledź STARLINK-31368 w czasie rzeczywistym z AllMySat

Download on the App Store